QLK321 YSSY-YSCB

Flight info

Callsign QLK321
Flight time N/A
Altitude 14000
Route GROOK1/16R WOL H65 CB
Aircraft AT76/M-SDFGIRY/S

Departure

Time 2026-05-05 06:21
Airport Sydney Kingsford Smith International Airport (YSSY)

Arrival

Time N/A
Airport Canberra Airport (YSCB)
Time Latitude Longitude Altitude Speed Heading
2026-05-05 05:58 -33.93117 151.18227 27 ft 0 kts 135°
2026-05-05 06:15 -33.93120 151.18228 27 ft 1 kts 152°
2026-05-05 06:16 -33.93125 151.18226 27 ft 1 kts 197°
2026-05-05 06:16 -33.93129 151.18202 27 ft 6 kts 279°
2026-05-05 06:16 -33.93114 151.18130 27 ft 11 kts 285°
2026-05-05 06:16 -33.93096 151.18034 27 ft 12 kts 281°
2026-05-05 06:17 -33.93080 151.17925 27 ft 14 kts 279°
2026-05-05 06:17 -33.93063 151.17807 26 ft 15 kts 280°
2026-05-05 06:17 -33.93033 151.17707 26 ft 14 kts 298°
2026-05-05 06:17 -33.93007 151.17605 27 ft 8 kts 280°
2026-05-05 06:18 -33.92999 151.17557 27 ft 7 kts 282°
2026-05-05 06:18 -33.92988 151.17484 27 ft 10 kts 281°
2026-05-05 06:18 -33.92972 151.17392 27 ft 12 kts 281°
2026-05-05 06:18 -33.92957 151.17298 27 ft 10 kts 281°
2026-05-05 06:19 -33.92963 151.17233 27 ft 8 kts 250°
2026-05-05 06:19 -33.93002 151.17187 27 ft 7 kts 201°
2026-05-05 06:19 -33.93043 151.17187 27 ft 1 kts 167°
2026-05-05 06:20 -33.93071 151.17194 27 ft 22 kts 167°
2026-05-05 06:20 -33.93430 151.17284 24 ft 82 kts 168°
2026-05-05 06:20 -33.94137 151.17476 31 ft 125 kts 168°
2026-05-05 06:20 -33.94980 151.17741 490 ft 122 kts 164°
2026-05-05 06:21 -33.95817 151.18066 772 ft 137 kts 171°
2026-05-05 06:21 -33.96830 151.17950 926 ft 151 kts 187°
2026-05-05 06:21 -33.97875 151.17791 1150 ft 155 kts 185°
2026-05-05 06:21 -33.98955 151.17663 1438 ft 155 kts 184°
2026-05-05 06:22 -34.00041 151.17578 1738 ft 156 kts 183°
2026-05-05 06:22 -34.00766 151.17544 1930 ft 157 kts 182°
2026-05-05 06:22 -34.02217 151.17490 2320 ft 157 kts 182°
2026-05-05 06:22 -34.02948 151.17476 2535 ft 157 kts 180°
2026-05-05 06:23 -34.04019 151.17779 2835 ft 160 kts 166°
2026-05-05 06:23 -34.05126 151.18218 2921 ft 174 kts 164°
2026-05-05 06:23 -34.06323 151.18691 3057 ft 188 kts 165°
2026-05-05 06:23 -34.07605 151.19154 3290 ft 200 kts 167°
2026-05-05 06:24 -34.08972 151.19624 3569 ft 207 kts 167°
2026-05-05 06:24 -34.10362 151.20094 3886 ft 211 kts 167°
2026-05-05 06:24 -34.11798 151.20578 4215 ft 213 kts 167°
2026-05-05 06:24 -34.13242 151.21048 4568 ft 214 kts 168°
2026-05-05 06:25 -34.14676 151.21507 4926 ft 215 kts 167°
2026-05-05 06:25 -34.16133 151.21975 5269 ft 216 kts 167°
2026-05-05 06:25 -34.17568 151.22454 5622 ft 216 kts 167°
2026-05-05 06:25 -34.19019 151.22946 5963 ft 217 kts 168°
2026-05-05 06:26 -34.20485 151.23443 6299 ft 218 kts 167°
2026-05-05 06:26 -34.21944 151.23933 6617 ft 220 kts 168°
2026-05-05 06:26 -34.23425 151.24443 6925 ft 221 kts 167°
2026-05-05 06:26 -34.24886 151.24959 7226 ft 222 kts 167°
2026-05-05 06:27 -34.26382 151.25483 7525 ft 224 kts 167°